Content
SEND FEEDBACK

Daily
Averages
Monthly
Summary
United States of America

EDINBURG, TEXAS


Home > North America > United States > Texas
Elevation: 117 feet     Latitude: 26 12N     Longitude: 098 13W

WEATHER
 
SELECT A DAY
Number of Records: 201,945;   Date Range: 1/1/95 - 10/1/14
 
SHARE

PRINT THIS DATA

[ ← Previous Day ]
WEATHER ALMANAC - JANUARY 31, 2013
[ Next Day → ]
[ °C ]   °F
Weather ElementAverageHighLow
Temperature59.2 °F71.1 °F (1:53 pm)46.9 °F (7:53 am)
Dewpoint33.9 °F43 °F (11:53 pm)27 °F (1:53 pm)
Humidity42.1 %64 % (11:53 pm)19 % (1:53 pm)
Barometer30.27 in30.34 in (9:53 am)30.20 in (4:53 pm)
Wind Speed4.9 mph12.7 mph (6:53 pm)
Weather ElementAverage
Visibility10 mi
Wind DirectionENE (77.8 °)

Weather ElementTotal
Precipitation---
Heating Degree Days6 (Base 65)
Growing Degree Days9 (Base 50)
Averaged from 23 records on January 31, 2013
WEATHER CONDITIONS BREAKOUT
WIND DIRECTION BREAKOUT
WEATHER BY HOUR - JANUARY 31, 2013
[ °C ]   °F
Local TimeTemperatureDewpointHumidityBarometerVisibilityWind DirectionWind SpeedGust SpeedPrecipitationEventsConditions
1:53 AM48.0 °F33.1 °F56 %30.27 in10.0 miCalmClear
2:53 AM48.0 °F32.0 °F54 %30.27 in10.0 miCalmClear
3:53 AM48.0 °F36.0 °F63 %30.27 in10.0 miCalmClear
4:53 AM48.0 °F34.0 °F58 %30.27 in10.0 miCalmClear
5:53 AM48.9 °F30.9 °F50 %30.28 in10.0 miCalmClear
6:53 AM48.0 °F33.1 °F56 %30.30 in10.0 miCalmClear
7:53 AM46.9 °F33.1 °F59 %30.31 in10.0 miCalmClear
8:53 AM54.0 °F30.9 °F41 %30.32 in10.0 miCalmClear
9:53 AM60.1 °F28.9 °F31 %30.34 in10.0 miCalmClear
10:53 AM66.0 °F32.0 °F28 %30.34 in10.0 miSouth (190°)8.1 mphClear
11:53 AM70.0 °F28.9 °F22 %30.32 in10.0 miVariable5.8 mphClear
12:53 PM69.1 °F28.0 °F22 %30.29 in10.0 miSSE (160°)3.5 mphClear
1:53 PM71.1 °F27.0 °F19 %30.24 in10.0 miSouth (170°)10.4 mphClear
2:53 PM71.1 °F28.0 °F20 %30.22 in10.0 miESE (120°)10.4 mphClear
3:53 PM71.1 °F28.9 °F21 %30.21 in10.0 miSE (140°)8.1 mphClear
4:53 PM71.1 °F32.0 °F24 %30.20 in10.0 miSouth (170°)8.1 mphClear
5:53 PM68.0 °F37.0 °F32 %30.20 in10.0 miSE (130°)8.1 mphClear
6:53 PM64.9 °F39.0 °F39 %30.21 in10.0 miSE (130°)12.7 mphClear
7:53 PM62.1 °F39.9 °F44 %30.24 in10.0 miESE (120°)9.2 mphClear
8:53 PM57.9 °F41.0 °F53 %30.26 in10.0 miESE (120°)6.9 mphClear
9:53 PM57.9 °F41.0 °F53 %30.27 in10.0 miESE (110°)8.1 mphClear
10:53 PM55.9 °F42.1 °F60 %30.27 in10.0 miESE (120°)6.9 mphClear
11:53 PM55.0 °F43.0 °F64 %30.29 in10.0 miESE (110°)6.9 mphClear
Hourly data recorded from KMFE, located miles away from Edinburg, Texas







STORIES FROM OUR PARTNERS